STARLINK-11242 [DTC]

Last updated on Tue Oct 01 2024 00:02:04 GMT+0000 (Coordinated Universal Time)

1 60903U 24154A 24274.10727730 .00006696 00000+0 44868-4 0 9990 2 60903 53.1595 203.8099 0001227 78.8051 281.3107 15.76732571 5944
UTC large
Height (km)
Speed (km/s)
/
Latitude / Longitude
Inclination (degrees)
Orbital Period (minutes)
Azimuth
Elevation
Range (km)
Doppler Factor

Next 0 passes for location: London (51.5072 / 0.1276)

Sorry there are no passes over London.